Regional Weather Roundup
Issued by NWS

Home | Current Version | Previous Version | Graphics & Text | Print | Product List | Glossary On
Versions: 1 2 3 4 5 6 7 8 9 10 11 12 13 14 15 16 17 18 19 20 21 22 23 24 25 26 27 28 29 30 31 32 33 34 35 36 37 38 39 40 41 42 43 44 45 46 47 48 49 50
133
ASUS45 KPSR 280610
RWRAZ

ARIZONA REGIONAL HOURLY WEATHER ROUNDUP
NATIONAL WEATHER SERVICE TUCSON AZ
1100 PM MST TUE JUN 27 2017

NOTE: FAIR INDICATES FEW OR NO CLOUDS BELOW 12,000 FEET WITH NO
SIGNIFICANT WEATHER AND/OR OBSTRUCTIONS TO VISIBILITY.

AZZ001>003-036-280700-
NORTHWEST ARIZONA

CITY           SKY/WX    TMP DP  RH WIND       PRES   REMARKS
BULLHEAD CITY  CLEAR     99   9   3 E5        29.62R
KINGMAN        CLEAR     73  13  10 SE9       29.86S
6HR MIN TEMP:  73; 6HR MAX TEMP: 100;

$$

AZZ004>008-015-016-018-280700-
NORTH CENTRAL ARIZONA

CITY           SKY/WX    TMP DP  RH WIND       PRES   REMARKS
GRAND CANYON   CLEAR     57  14  18 CALM      30.13S
6HR MIN TEMP:  57; 6HR MAX TEMP:  87;

PRESCOTT       CLEAR     70  11  10 SW6       30.04R
6HR MIN TEMP:  69; 6HR MAX TEMP:  91;

FLAGSTAFF      CLEAR     61   9  12 SW7       30.18R
6HR MIN TEMP:  61; 6HR MAX TEMP:  82;

PAYSON         CLEAR     70  19  14 CALM      30.08S
PAGE           CLEAR     87  20   8 W5        29.87R
6HR MIN TEMP:  87; 6HR MAX TEMP: 100;

$$

AZZ009>014-017-280700-
NORTHEAST ARIZONA

CITY           SKY/WX    TMP DP  RH WIND       PRES   REMARKS
WINSLOW        CLEAR     75  18  11 SW18      30.00R
6HR MIN TEMP:  75; 6HR MAX TEMP:  95;

SAINT JOHNS    CLEAR     70  14  11 SW10      30.08S
6HR MIN TEMP:  69; 6HR MAX TEMP:  92;

WINDOW ROCK    CLEAR     63  16  16 SW3       30.13R
6HR MIN TEMP:  59; 6HR MAX TEMP:  89;

SHOW LOW       CLEAR     64  16  15 S10       30.17
$$

AZZ023-280700-
GREATER PHOENIX AREA

CITY           SKY/WX    TMP DP  RH WIND       PRES   REMARKS
PHOENIX        CLEAR     99  27   8 W12       29.71R
6HR MIN TEMP:  97; 6HR MAX TEMP: 109;

BUCKEYE          N/A     90  46  22 SW9       29.72R
LUKE AFB       CLEAR     96  42  15 SW16      29.70R
6HR MIN TEMP:  91; 6HR MAX TEMP: 109; 6HR PCP: TRACE;

DEER VALLEY    CLEAR     89  29  11 S3        29.73R
6HR MIN TEMP:  89; 6HR MAX TEMP: 107;

SCOTTSDALE     CLEAR     94  29  10 SW6       29.75R
6HR MIN TEMP:  94; 6HR MAX TEMP: 108;

MESA-GATEWAY   CLEAR     70  32  24 SW8       29.75R
$$

AZZ027-028-280700-
SOUTHWEST MARICOPA COUNTY AND PINAL COUNTY

CITY           SKY/WX    TMP DP  RH WIND       PRES   REMARKS
CASA GRANDE    CLEAR     88  34  14 W7        29.77R
6HR MIN TEMP:  88; 6HR MAX TEMP: 107;

$$

AZZ503-504-507>509-280700-
SOUTHEAST ARIZONA

CITY           SKY/WX    TMP DP  RH WIND       PRES   REMARKS
TUCSON         CLEAR     89  37  16 SW5       29.91R
6HR MIN TEMP:  89; 6HR MAX TEMP: 106;

DAVIS-MONTHAN  CLEAR     87  37  16 CALM      29.90R
6HR MIN TEMP:  87; 6HR MAX TEMP: 105;

NOGALES        CLEAR     76  35  22 CALM      30.02R
6HR MIN TEMP:  76; 6HR MAX TEMP:  99;

SIERRA VISTA   CLEAR     78  32  18 W9        30.08R
6HR MIN TEMP:  78; 6HR MAX TEMP:  97;

DOUGLAS        CLEAR     79  49  34 S12       30.03R
6HR MIN TEMP:  79; 6HR MAX TEMP: 100;

SAFFORD        LGT RAIN  81  21  11 NW12      29.90R
6HR MIN TEMP:  79; 6HR MAX TEMP: 104; 6HR PCP: TRACE;

$$

AZZ020-021-025-026-031-280700-
SOUTHWEST ARIZONA

CITY           SKY/WX    TMP DP  RH WIND       PRES   REMARKS
YUMA           CLEAR     87  55  33 SE6       29.70R
6HR MIN TEMP:  86; 6HR MAX TEMP: 112;

$$

CAZ031-033-041-043-047-048-061-280700-
SOUTHERN CALIFORNIA

CITY           SKY/WX    TMP DP  RH WIND       PRES   REMARKS
DOWNTOWN L.A.    N/A     66  58  75 CALM      29.87
6HR MIN TEMP:  66; 6HR MAX TEMP:  82;

L.A. AIRPORT   PTCLDY    65  60  84 SW6       29.87R
6HR MIN TEMP:  65; 6HR MAX TEMP:  73;

SAN DIEGO      PTCLDY    65  61  87 NW7       29.90R
6HR MIN TEMP:  65; 6HR MAX TEMP:  77;

BURBANK        CLEAR     69  54  58 SE7       29.87R
6HR MIN TEMP:  69; 6HR MAX TEMP:  88;

ONTARIO        CLEAR     73  50  44 W8        29.87S
6HR MIN TEMP:  71; 6HR MAX TEMP:  94;

RIVERSIDE      CLEAR     72  50  45 W7        29.88R
6HR MIN TEMP:  72; 6HR MAX TEMP:  98;

PALM SPRINGS   CLEAR     96  20   6 NW7G21    29.68R
6HR MIN TEMP:  96; 6HR MAX TEMP: 112;

EL CENTRO NAS  CLEAR     89  20   8 W16       29.69R
6HR MIN TEMP:  89; 6HR MAX TEMP: 113;

IMPERIAL       CLEAR     88  30  12 W18       29.66R
6HR MIN TEMP:  88; 6HR MAX TEMP: 110; 6HR PCP: TRACE;

BLYTHE         CLEAR     90  34  13 S13       29.65R
6HR MIN TEMP:  90; 6HR MAX TEMP: 114;

NEEDLES        CLEAR     99   5   3 W10       29.64S
6HR MIN TEMP:  99; 6HR MAX TEMP: 115;

$$

NVZ020-UTZ003-280700-
SOUTHERN NEVADA-UTAH

CITY           SKY/WX    TMP DP  RH WIND       PRES   REMARKS
LAS VEGAS      CLEAR     94  21   7 SW12G21   29.71R
6HR MIN TEMP:  94; 6HR MAX TEMP: 107;

SALT LAKE CITY CLEAR     74  36  25 SW3       29.85S
6HR MIN TEMP:  74; 6HR MAX TEMP:  90;

$$

NMZ009-TXZ055-280700-
NEW MEXICO-WEST TEXAS

CITY           SKY/WX    TMP DP  RH WIND       PRES   REMARKS
ALBUQUERQUE    PTCLDY    75  43  31 SE12      30.01R
6HR MIN TEMP:  75; 6HR MAX TEMP:  91;

EL PASO        PTCLDY    84  55  36 E3        29.96F
6HR MIN TEMP:  84; 6HR MAX TEMP:  95;

$$


........................KEY........................
SKY/WX - SKY CONDITION/WEATHER
TMP    - TEMPERATURE IN FAHRENHEIT
DP     - DEWPOINT IN FAHRENHEIT
RH     - RELATIVE HUMIDITY IN PERCENT
WIND   - DIRECTION AND SPEED IN MILES PER HOUR (MPH)
VRB    - VARIABLE WIND DIRECTION
PRES   - MEAN SEA LEVEL PRESSURE IN INCHES OF MERCURY
         F - FALLING PRESSURE   R - RISING PRESSURE
         S - STEADY PRESSURE
VSB    - VISIBILITY IN MILES
HX     - HEAT INDEX IN FAHRENHEIT
WCI    - WIND CHILL INDEX IN FAHRENHEIT
TC     - TEMPERATURE IN CELSIUS WHICH IS ALSO KNOWN AS
         TEMPERATURE IN CENTIGRADE
AFB    - AIR FORCE BASE
         LUKE AFB IS LUKE AIR FORCE BASE
         DAVIS-MONTHAN IS DAVIS-MONTHAN AIR FORCE BASE
NAS    - NAVAL AIR STATION
         EL CENTRO NAS IS EL CENTRO NAVAL AIR STATION
N/A    - NOT AVAILABLE





USA.gov is the U.S. government's official web portal to all federal, state and local government web resources and services.